Regional Weather Roundup
Issued by NWS

Home | Current Version | Previous Version | Graphics & Text | Print | Product List | Glossary On
Versions: 1 2 3 4 5 6 7 8 9 10 11 12 13 14 15 16 17 18 19 20 21 22 23 24 25 26 27 28 29 30 31 32 33 34 35 36 37 38 39 40 41 42 43 44 45 46 47 48 49 50
000
ASUS45 KBOU 250007
RWRCO

WEATHER ROUNDUP FOR COLORADO
NATIONAL WEATHER SERVICE DENVER/BOULDER CO
600 PM MDT FRI APR 24 2015

NOTE: "FAIR" INDICATES FEW OR NO CLOUDS BELOW 12000 FEET WITH NO
SIGNIFICANT WEATHER AND/OR OBSTRUCTIONS TO VISIBILITY.

COZ001>005-013-030-031-250100-
...NORTHWEST COLORADO...

CITY           SKY/WX    TMP DP  RH WIND       PRES   REMARKS
CRAIG          PTSUNNY   57  27  31 SW13G22   29.71F
HAYDEN         PTSUNNY   57  25  28 SW10G16   29.73F
MEEKER         PTSUNNY   55  29  36 SW17      29.74S
MOUNT WERNER   NOT AVBL
STEAMBOAT SPGS PTSUNNY   49  31  49 E10       29.75F
WALDEN         CLOUDY    41  28  60 SW14G20   29.78S
$$

COZ006>008-011-250100-
...WEST CENTRAL VALLEYS...

CITY           SKY/WX    TMP DP  RH WIND       PRES   REMARKS
GRAND JUNCTION PTSUNNY   62  27  26 SE18      29.70S
MONTROSE       CLOUDY    58  25  28 VRB3      29.79F
EAGLE          PTSUNNY   48  30  49 S6        29.82F
RIFLE          PTSUNNY   56  32  40 N6        29.78S
DELTA          CLOUDY    60  27  28 NW17G25   29.79R
NUCLA          CLOUDY    57  30  35 E12       29.83R
$$

COZ017>023-064>068-250100-
...SOUTHWEST COLORADO...

CITY           SKY/WX    TMP DP  RH WIND       PRES   REMARKS
DURANGO        CLOUDY    49  30  48 N18G24    29.88R
CORTEZ         PTSUNNY   59  25  27 E8        29.82F
PAGOSA SPRINGS CLOUDY    46  28  50 W5        29.91R
TELLURIDE      CLOUDY    38  31  76 S5        29.95R
WOLF CREEK PAS NOT AVBL
$$

COZ009-010-012-014-032>034-037-058>063-250100-
...CENTRAL COLORADO...

CITY           SKY/WX    TMP DP  RH WIND       PRES   REMARKS
ASPEN          CLOUDY    41  31  67 S5        29.85F
BUENA VISTA    CLOUDY    45  23  41 NW22G29   29.80S
COPPER MTN     CLOUDY    28  23  80 W30       29.92S WCI  13
BERTHOUD PASS  HVY SNOW  23  14  68 NW21G30   29.92R VSB<1/4 WCI   8
COTTONWOOD PAS CLOUDY    41  21  45 W23G33    29.85S
GUNNISON       CLOUDY    45  27  49 N8        29.88S
KREMMLING      CLOUDY    52  23  32 SW18G24   29.79R
LEADVILLE      CLOUDY    33  23  66 NW14      29.88R WCI  23
MONARCH PASS   CLOUDY    27  21  80 MISG      30.03R
SALIDA         CLOUDY    50  21  32 W22G38    29.87S
SUNLIGHT       CLOUDY    36  32  87 CALM      29.94S
WILKERSON PASS FOG       28  27  93 NE9G20    29.91R VSB 3/4 WCI  20
$$

COZ069>075-250100-
...SAN LUIS VALLEY/SANGRE DE CRISTO MOUNTAINS...

CITY           SKY/WX    TMP DP  RH WIND       PRES   REMARKS
ALAMOSA        CLOUDY    50  24  36 N16G24    29.82R
LA VETA PASS   CLOUDY    34  21  60 SW7       29.86S WCI  28
SAGUACHE       CLOUDY    46  28  49 NW16      29.83F
$$

COZ035-036-038>040-250100-
...NORTHERN COLORADO FRONT RANGE...

CITY           SKY/WX    TMP DP  RH WIND       PRES   REMARKS
DENVER INTL AP CLOUDY    60  31  33 W15       29.65R
DMNS CITY PARK   N/A     56  32  40 W8G16     29.66R
AURORA         PTSUNNY   58  30  33 SW9       29.66F
FRONT RANGE AP PTSUNNY   61  32  33 N5        29.67R
ERIE MUNI ARPT CLOUDY    58  30  34 SW8       29.65F
BOULDER MUN AP CLOUDY    57  32  38 W15G25    29.66S
CENTENNIAL     CLOUDY    55  30  38 W8        29.67F
BROOMFIELD     PTSUNNY   55  32  41 W16       29.68S
FORT COLLINS   CLOUDY    57  36  44 W7        29.65S
LONGMONT       CLOUDY    61  35  37 SW6       29.67F
$$

COZ041-046-047-076>085-087-088-250100-
...PIKES PEAK/PALMER DIVIDE AND SOUTHERN FOOTHILLS...

CITY           SKY/WX    TMP DP  RH WIND       PRES   REMARKS
COLO. SPRINGS  CLOUDY    57  27  31 W5        29.68S
A. F. ACADEMY  NOT AVBL
ELLICOTT       CLOUDY   N/A N/A N/A SE7       29.67S
FALCON         CLOUDY    52  29  41 N20G30    29.72R
FORT CARSON    CLOUDY    59  29  31 SW5       29.66R
LIMON          CLOUDY    57  32  38 W14       29.63R
MONUMENT HILL  CLOUDY    50  30  46 N8        29.72R
TRINIDAD       CLOUDY    62  27  26 NW23G30   29.66F
$$

COZ042>045-048>051-090-091-250100-
...NORTHEAST COLORADO...

CITY           SKY/WX    TMP DP  RH WIND       PRES   REMARKS
GREELEY ARPT   CLOUDY    63  30  29 NW9       29.62F
AKRON          CLOUDY    60  38  43 NW7       29.61S
BURLINGTON     CLOUDY    55  39  54 E26G33    29.55F
WRAY           CLOUDY    55  45  69 N15       29.57F
STERLING       CLOUDY    61  37  41 NW21G35   29.58R
HOLYOKE        CLOUDY    59  48  67 SE7       29.55F
FORT MORGAN    CLOUDY    60  31  33 NW12      29.61F
$$

COZ086-089-092>099-250100-
...SOUTHEAST COLORADO...

CITY           SKY/WX    TMP DP  RH WIND       PRES   REMARKS
PUEBLO         CLOUDY    55  39  54 S10       29.63F
LA JUNTA       PTSUNNY   64  35  34 N29G35    29.57R
LAMAR          MOSUNNY   66  38  35 NE21      29.50R
SPRINGFIELD      N/A     64  40  41 SW13      29.54F
$$


USA.gov is the U.S. government's official web portal to all federal, state and local government web resources and services.